Погода Старая Русса

Хотите узнать прогноз погоды Старая Русса? Тогда Вам сюда: Погода Старая Русса

Поиск расширенной информации на нашем сайте:

Полезная информация:

Новости сайта



02.01.2020
Опубликован Долгосрочный прогноз погоды по городам России и ближнего зарубежья на январь 2020 года.
Карты: Прогноз на январь и февраль 2020 года, Сравнение прогнозируемой аномалии приземной температуры воздуха на январь 2020 года по разным моделям.




Погода Старая Русса - сегодня

Время (UTC), дата Ветер
(°,м/с) 
Видим.   Явления Облачность Т
(°С)
Тd
(°С)
f(%) Тe
(°С)
Pmin
(гПа)
dP
(гПа)
Po
(мм)
O2
(г/м3)
Тmin Tmax R s Состояние
почвы
15 16.04.21 060 (СВ) 20000 м    8/0 верхняя 
[Ci fib]
+14.6 +0.6 38 +15  1023  -0.3  765  293           
18 16.04.21 050 (СВ) 20000 м    6/0 верхняя 
[Ci fib]
+11.1 -1.8 41 +11  1023.9  0.9  766  297    +16       
21 16.04.21 040 (СВ) 20000 м    3/0 верхняя 
[Ci fib]
+8.4 -4.3 40 +8  1025.2  1.3  767  300           
00 17.04.21 050 (СВ) 20000 м    ясно 
+7.2 -4.2 44 +7  1025.3  767  301           
03 17.04.21 030 (СВ) 20000 м    ясно 
+4.9 -3.4 55 +5  1025.3  767  304  +4.6         
06 17.04.21 060 (СВ) 20000 м    5/0 верхняя 
[Ci sp]
+9.5 -4.8 36 +9  1025.7  0.5  767  299  +4.6         
09 17.04.21 040 (СВ) 20000 м    8/0 верхняя 
[Ci fib]
+14.9 -3.3 28 +15  1025.3  -0.4  767  293           
12 17.04.21 070 (В) 20000 м    5/0 верхняя 
[Ci sp]
+16.9 -3.7 24 +17  1024.7  -0.6  766  291           
15 17.04.21 060 (СВ) 20000 м    9/0 верхняя 
[Ci sp]
+17.7 -3.9 23 +18  1023.6  -1  766  290           
18 17.04.21 040 (СВ) 20000 м    5/0 верхняя 
[Ci fib]
+12 -1.5 39 +12  1024.5  0.8  766  296    +18       
21 17.04.21 040 (СВ) 20000 м    ясно 
+9.3 -2.9 42 +9  1025.2  0.7  767  299           
00 18.04.21 040 (СВ) 20000 м    ясно 
+7.4 -3.4 46 +7  1025.4  0.1  767  301           
03 18.04.21 040 (СВ) 20000 м    ясно 
+4.4 -2.9 59 +4  1025.8  0.4  767  305  +4.3         
06 18.04.21 060 (СВ) 20000 м    ясно 
+10.2 -3.9 37 +10  1026  0.3  767  298  +4.3         
09 18.04.21 060 (СВ) 20000 м    ясно 
+14.8 -5.1 25 +15  1025.3  -0.7  767  294           
12 18.04.21 070 (В) 4{11}  20000 м    4/0 верхняя 
[Ci fib]
+16.3 -4.5 24 +16  1024.4  -0.9  766  292           
15 18.04.21 060 (СВ) 4{10}  20000 м    ясно 
+16.2 -4.8 23 +16  1023.8  -0.6  766  292           
18 18.04.21 080 (В) 20000 м    6/0 верхняя 
[Ci sp]
+12.2 -4.5 31 +13  1024.8  766  296    +16.7       
21 18.04.21 060 (СВ) 20000 м    ясно 
+8.7 -1.8 48 +9  1025.9  1.1  767  300           
00 19.04.21 040 (СВ) 20000 м    ясно 
+5.1 -1.8 61 +6  1026  767  304           
03 19.04.21 050 (СВ) 20000 м    3/0 верхняя 
[Ci fib]
+4 -0.6 72 +4  1026.2  0.2  767  305  +3.8         
06 19.04.21 060 (СВ) 20000 м    3/0 верхняя 
[Ci sp]
+9.5 +0.3 53 +10  1026.2  0.1  767  299  +3.8         
09 19.04.21 010 (С) 20000 м    1/0 верхняя 
[Ci sp]
+13.4 +1.1 43 +13  1025.6  -0.6  767  294           
12 19.04.21 020 (С) 20000 м    4/3 600 м верхняя 
[Cu med, cong|Ci fib]
+14.7 -0.1 36 +15  1024.6  -1  766  293           
15 19.04.21 360 (С) 20000 м    3/3 600 м 
[Cu med, cong]
+14.9 -1.8 32 +15  1023.6  -1  765  293           
Время (UTC), дата Ветер
(°,м/с) 
Видим.   Явления Облачность Т
(°С)
Тd
(°С)
f(%) Тe
(°С)
Pmin
(гПа)
dP
(гПа)
Po
(мм)
O2
(г/м3)
Тmin Tmax R s Состояние
почвы

Для получения пояснительной информации подведите курсор к названию столбца.

ПОГОДА Старая Русса - архив

Всё, что Вы хотите узнать о погоде Старая Русса - удобно и подробно!

Выберите нужную дату (начиная с 1 января 2019* года) и нажмите кнопку "Найти".
Будут отображены архивные сводки погоды по пункту Старая Русса, начиная с указанной даты.


Отображать данные в формате CSV (для использования в таблицах Excel)


Внимание! Наш архив погоды предназначен исключительно для личного некоммерческого использования в познавательных целях. Если Вам необходимы официальные справки о состоянии погоды (для производственных, юридических, коммерческих и т.п. целей), обращайтесь в органы Росгидромета.

*Примечание: данная дата относится к архиву по метеостанциям СССР (Россия, СНГ, Балтия).
Архив по метеостанциям Зарубежной Европы и Азии (кроме Китая) хранится 10 дней, по другим регионам земного шара (Китай, Африка, Америка, Австралия, Океания) - 1 день.

Старая Русса - район местоположения метеостанции


Название, широта, долгота, высота метеостанции:
Старая Русса 58°ш. 31.3°д. 25 м над ур. моря [Российская Федерация]

Дополнительная информация

В oтличие oт бoльшинства пoгoдных сайтoв мы публикуем пoдрoбную метеoинфoрмацию в детальнoм прoфессиoнальнoм фoрмате.

Характеристики температуры и влажнoсти вoздуха измеряются на высoте 2 м в тени вдали oт зданий и деревьев.
Скoрoсть ветра измеряется на высoте 10 м (на урoвне рoста челoвека скoрoсть ветра ниже в 1.5-2 раза). Если метеoстанция нахoдится в гoрoде или в лесу, тo скoрoсть ветра занижена на 2-4 м/с пo сравнению с oткрытым местoм. Скoрoсть ветра над акватoриями крупных рек и oзёр, а также на вершинах хoлмoв на 2-5 м/с выше, чем в oбычных услoвиях.
Атмoсфернoе давление в разных тoчках местнoсти мoжет значительнo oтличаться oт давления на метеoстанции, в зависимoсти oт услoвий рельефа (при пoдъёме на 10 м давление пoнижается примернo на 1 мм рт.ст.).